Satellite: IO-26
Catalog number: 22826
Epoch time:      09077.84375668
Element set:     922
Inclination:      098.4205 deg
RA of node:       034.9464 deg
Eccentricity:    0.0009068
Arg of perigee:   160.9389 deg
Mean anomaly:     199.2129 deg
Mean motion:   14.29511817 rev/day
Decay rate:       -4.0e-08 rev/day^2
Epoch rev:           80710
Checksum:              333

Satellite: GO-32
Catalog number: 25397
Epoch time:      09078.57252621
Element set:     847
Inclination:      098.3351 deg
RA of node:       105.6810 deg
Eccentricity:    0.0001802
Arg of perigee:   125.5287 deg
Mean anomaly:     234.6061 deg
Mean motion:   14.23155773 rev/day
Decay rate:      -1.15e-06 rev/day^2
Epoch rev:           55538
Checksum:              299

Satellite: NO-44
Catalog number: 26931
Epoch time:      09078.73215295
Element set:     124
Inclination:      067.0537 deg
RA of node:       294.8053 deg
Eccentricity:    0.0005113
Arg of perigee:   260.9985 deg
Mean anomaly:     099.0511 deg
Mean motion:   14.29551084 rev/day
Decay rate:        5.4e-07 rev/day^2
Epoch rev:           38979
Checksum:              322

Satellite: SO-50
Catalog number: 27607
Epoch time:      09078.74649254
Element set:     840
Inclination:      064.5599 deg
RA of node:       296.7364 deg
Eccentricity:    0.0076256
Arg of perigee:   224.9508 deg
Mean anomaly:     134.5378 deg
Mean motion:   14.71420702 rev/day
Decay rate:       -2.6e-07 rev/day^2
Epoch rev:           33551
Checksum:              331

Satellite: CO-55
Catalog number: 27844
Epoch time:      09077.55907354
Element set:    0537
Inclination:      098.7162 deg
RA of node:       087.9978 deg
Eccentricity:    0.0010781
Arg of perigee:   048.1029 deg
Mean anomaly:     312.1074 deg
Mean motion:   14.20627007 rev/day
Decay rate:        2.4e-07 rev/day^2
Epoch rev:           29639
Checksum:              326

Satellite: CO-57
Catalog number: 27848
Epoch time:      09077.52401834
Element set:     482
Inclination:      098.7169 deg
RA of node:       087.0249 deg
Eccentricity:    0.0010582
Arg of perigee:   050.1535 deg
Mean anomaly:     310.0550 deg
Mean motion:   14.20430551 rev/day
Decay rate:        3.0e-08 rev/day^2
Epoch rev:           29635
Checksum:              289

Satellite: AO-51
Catalog number: 28375
Epoch time:      09077.74351323
Element set:     342
Inclination:      098.0562 deg
RA of node:       092.6078 deg
Eccentricity:    0.0085180
Arg of perigee:   039.8411 deg
Mean anomaly:     320.8984 deg
Mean motion:   14.40635861 rev/day
Decay rate:        3.0e-08 rev/day^2
Epoch rev:           24793
Checksum:              313

Satellite: CO-56
Catalog number: 28941
Epoch time:      09078.46271960
Element set:     913
Inclination:      098.1324 deg
RA of node:       236.7995 deg
Eccentricity:    0.0110214
Arg of perigee:   109.5013 deg
Mean anomaly:     251.8241 deg
Mean motion:   15.75161494 rev/day
Decay rate:     5.4268e-04 rev/day^2
Epoch rev:           17308
Checksum:              321

Satellite: CP3
Catalog number: 31128
Epoch time:      09077.19062970
Element set:     582
Inclination:      097.9981 deg
RA of node:       134.4916 deg
Eccentricity:    0.0102444
Arg of perigee:   206.6689 deg
Mean anomaly:     152.9233 deg
Mean motion:   14.52025982 rev/day
Decay rate:       -4.7e-07 rev/day^2
Epoch rev:           10169
Checksum:              315

Satellite: CP4
Catalog number: 31132
Epoch time:      09078.41464424
Element set:     561
Inclination:      098.0052 deg
RA of node:       139.2103 deg
Eccentricity:    0.0085134
Arg of perigee:   192.3033 deg
Mean anomaly:     167.6096 deg
Mean motion:   14.55191416 rev/day
Decay rate:       2.59e-06 rev/day^2
Epoch rev:           10197
Checksum:              279

Satellite: CO-65
Catalog number: 32785
Epoch time:      09077.21424534
Element set:    0318
Inclination:      097.9564 deg
RA of node:       141.8947 deg
Eccentricity:    0.0014672
Arg of perigee:   331.1911 deg
Mean anomaly:     028.8481 deg
Mean motion:   14.81459250 rev/day
Decay rate:       3.67e-06 rev/day^2
Epoch rev:           04797
Checksum:              332

/EX
SB KEPS @ AMSAT  $ORB09078.W
Orbital Elements  09078.WEATHER

HR AMSAT ORBITAL ELEMENTS FOR WEATHER SATELLITES
FROM WA5QGD FORT WORTH,TX March 19, 2009
Send Subscribe/unsubscribe to KEPS at 
http://www.amsat.org/mailman/listinfo/keps
BID: ORB09078.W
TO ALL RADIO AMATEURS BT

Satellite: NOAA-10
Catalog number: 16969
Epoch time:      09078.15141367
Element set:     541
Inclination:      098.7003 deg
RA of node:       105.2542 deg
Eccentricity:    0.0013125
Arg of perigee:   098.7903 deg
Mean anomaly:     261.4745 deg
Mean motion:   14.27382041 rev/day
Decay rate:       -1.6e-07 rev/day^2
Epoch rev:           17066
Checksum:              288

Satellite: NOAA-11
Catalog number: 19531
Epoch time:      09077.76129660
Element set:    0553
Inclination:      098.7819 deg
RA of node:       169.1150 deg
Eccentricity:    0.0011886
Arg of perigee:   010.0514 deg
Mean anomaly:     350.0894 deg
Mean motion:   14.14889852 rev/day
Decay rate:      -2.16e-06 rev/day^2
Epoch rev:           05673
Checksum:              314

